Home   Weather   34°05'N, 117°45'W   Past weeks
Flag for USA

Past Weather in 34°05'N, 117°45'W, USA — Yesterday and Last 2 Weeks

Now
56 °F

Mostly cloudy.


Feels Like: 53 °F
Forecast: 65 / 49 °F
Wind: 10 mph from Southwest

Location: Chino Airport

Current Time: May 26, 2019 at 8:24:42 pm

Latest Report: May 26, 2019 at 6:53 pm


Visibility: 10 mi

Pressure: 29.95 "Hg

Humidity: 84%

Dew Point: 51 °F

Location of 34°05'N, 117°45'WLocation

Past Weather in 34°05'N, 117°45'W — Graph

°F

34°05'N, 117°45'W Temperature Yesterday

Maximum temperature yesterday: 74 °F (at 2:53 pm)
Minimum temperature yesterday: 49 °F (at 4:53 am)
Average temperature yesterday: 61 °F

High & Low Weather Summary for the Past Weeks

 TemperatureHumidityPressure
High79 °F (May 14, 2:53 pm)100% (May 12, 2:53 am)30.04 "Hg (May 12, 2:53 am)
Low45 °F (May 24, 5:30 am)33% (May 18, 2:53 pm)29.70 "Hg (May 22, 12:53 pm)
Average59 °F79%29.92 "Hg
* Reported May 11 6:53 pm — May 26 6:53 pm, 34°05'N, 117°45'W. Weather by CustomWeather, © 2019

Note: Actual official high and low records may vary slightly from our data, if they occured in-between our weather recording intervals... More about our weather records

Advertising

34°05'N, 117°45'W Weather History for the Previous 24 Hours

Scroll right to see more
 ConditionsComfort  
Time TempWeatherWind HumidityBarometerVisibility
6:53 pm
Sun, May 26
56 °FMostly cloudy.10 mph84%29.95 "Hg10 mi
5:53 pm56 °FMostly cloudy.8 mph84%29.96 "Hg10 mi
4:53 pm56 °FMostly cloudy.7 mph84%29.96 "Hg10 mi
3:53 pm58 °FMostly cloudy.10 mph70%29.97 "Hg10 mi
2:53 pm58 °FMostly cloudy.10 mph72%29.98 "Hg10 mi
1:53 pm59 °FMostly cloudy.12 mph69%29.97 "Hg10 mi
12:53 pm59 °FMostly cloudy.13 mph67%29.97 "Hg10 mi
11:53 am58 °FMore clouds than sun.10 mph72%29.97 "Hg9 mi
10:53 am58 °FCloudy.12 mph78%29.95 "Hg8 mi
9:53 am56 °FFog.12 mph87%29.93 "Hg5 mi
8:53 am61 °FPartly sunny.13 mph67%29.91 "Hg10 mi
7:53 am58 °FPartly sunny.9 mph81%29.90 "Hg10 mi
7:09 am57 °FPartly sunny.7 mph81%29.90 "Hg10 mi
6:53 am57 °FOvercast.8 mph83%29.88 "Hg10 mi
5:53 am56 °FOvercast.9 mph87%29.87 "Hg10 mi
4:53 am57 °FOvercast.7 mph83%29.86 "Hg10 mi
3:53 am57 °FOvercast.7 mph87%29.86 "Hg10 mi
2:53 am57 °FOvercast.9 mph87%29.87 "Hg10 mi
2:06 am57 °FMostly cloudy.9 mph87%29.88 "Hg10 mi
1:53 am57 °FOvercast.10 mph87%29.87 "Hg10 mi
1:08 am57 °FMostly cloudy.9 mph90%29.89 "Hg10 mi
11:53 pm
Sat, May 25
56 °FOvercast.7 mph93%29.88 "Hg10 mi
10:53 pm56 °FClear.6 mph90%29.88 "Hg10 mi
9:53 pm57 °FClear.9 mph87%29.88 "Hg10 mi
8:53 pm58 °FPassing clouds.10 mph81%29.87 "Hg10 mi
Weather by CustomWeather, © 2019

See weather overview